Location: Cerezo de Arriba
(41.2389°N, 3.5585°W)
Time: 04:23:41
(UTC+00:00)

Okean O Rocket - Pass Details

Date: 19 May 2025
Orbit: 614 x 636 km, 98.0° (Epoch: 23 June)

Event Time Altitude Azimuth Distance (km) Brightness Sun altitude
Exits shadow 19:57:35 - 132° (SE) 2,331 3.8 -5.3°
Reaches altitude 10° 19:58:29 10° 127° (SE) 2,001 3.5 -5.5°
Maximum altitude 20:02:11 28° 69° (ENE) 1,188 2.7 -6.0°
Drops below altitude 10° 20:05:53 10° 10° (N) 2,002 4.5 -6.6°
Sets 20:08:18 0° 359° (N) 2,909 5.6 -7.0°
